Weather History for Crane Lake, MN

Change the Weather History Date:

Monday, April 1, 2013

  Actual Average Record
Temperature  
Mean Temperature 20 °F -  
Max Temperature 32 °F 39 °F 57 °F (1997)
Min Temperature 8 °F 21 °F 1 °F (2014)
Degree Days  
Heating Degree Days 45    
Moisture  
Dew Point 3 °F    
Average Humidity 48    
Maximum Humidity 73    
Minimum Humidity 27    
Precipitation  
Precipitation 0.00 in - - ()
Sea Level Pressure  
Sea Level Pressure 30.11 in    
Wind  
Wind Speed 7 mph (NW)    
Max Wind Speed 14 mph    
Max Gust Speed 26 mph    
Visibility 10 miles    
Events      
Averages and records for this station are not official NWS values.
T = Trace of Precipitation, MM = Missing Value Source: NWS Daily Summary

Daily Weather History Graph

Daily Weather History Graph

Search for Another Location

Airport:

Trip Planner

Search our weather history database for the weather conditions in past years. The results will help you decide how hot, cold, wet, or windy it might be!

Date:

Astronomy

Apr. 01, 2013 Rise Set
Actual Time 6:47 AM CDT 7:40 PM CDT
Civil Twilight 6:15 AM CDT 8:12 PM CDT
Nautical Twilight 5:38 AM CDT 8:50 PM CDT
Astronomical Twilight 4:58 AM CDT 9:30 PM CDT
Moon 1:09 AM CDT (4/1) 10:13 AM CDT (4/1)
Length of Visible Light 13h 56m
Length of Day
12h 53m
Waning Gibbous, 67% of the Moon is Illuminated
Apr 1
Waning Gibbous
Apr 2
Last Quarter
Apr 10
New
Apr 18
First Quarter
Apr 25
Full

Hourly Weather History & Observations

Time (CDT) Temp. Windchill Dew Point Humidity Pressure Visibility Wind Dir Wind Speed Gust Speed Precip Events Conditions
12:13 AM 19.4 °F 10.4 °F 6.8 °F 58% 30.03 in 10.0 mi NNW 6.9 mph - N/A   Overcast
12:33 AM 19.4 °F 10.4 °F 6.8 °F 58% 30.04 in 10.0 mi NNW 6.9 mph - N/A   Overcast
12:53 AM 19.4 °F 7.9 °F 6.8 °F 58% 30.04 in 10.0 mi NNW 10.4 mph - N/A   Overcast
1:13 AM 19.4 °F 8.6 °F 5.0 °F 54% 30.04 in 10.0 mi NW 9.2 mph - N/A   Overcast
1:34 AM 19.4 °F 7.9 °F 5.0 °F 54% 30.05 in 10.0 mi NW 10.4 mph - N/A   Overcast
1:53 AM 19.4 °F 10.4 °F 6.8 °F 58% 30.05 in 10.0 mi NNW 6.9 mph 16.1 mph N/A   Overcast
2:13 AM 19.4 °F 7.9 °F 6.8 °F 58% 30.05 in 10.0 mi NNW 10.4 mph - N/A   Overcast
2:33 AM 17.6 °F 9.3 °F 5.0 °F 58% 30.06 in 10.0 mi NNW 5.8 mph - N/A   Overcast
2:53 AM 17.6 °F 5.7 °F 6.8 °F 63% 30.06 in 10.0 mi NNW 10.4 mph 18.4 mph N/A   Overcast
3:13 AM 17.6 °F 5.7 °F 5.0 °F 58% 30.06 in 10.0 mi NNW 10.4 mph 18.4 mph N/A   Overcast
3:33 AM 17.6 °F 5.7 °F 5.0 °F 58% 30.07 in 10.0 mi NNW 10.4 mph 18.4 mph N/A   Overcast
3:53 AM 15.8 °F 6.1 °F 3.2 °F 58% 30.07 in 10.0 mi NNW 6.9 mph 18.4 mph N/A   Mostly Cloudy
4:13 AM 15.8 °F 6.1 °F 3.2 °F 58% 30.08 in 10.0 mi NNW 6.9 mph - N/A   Mostly Cloudy
4:33 AM 14.0 °F 3.9 °F 3.2 °F 62% 30.09 in 10.0 mi NNW 6.9 mph - N/A   Scattered Clouds
4:53 AM 12.2 °F 2.9 °F 3.2 °F 67% 30.10 in 10.0 mi NNW 5.8 mph - N/A   Clear
5:13 AM 12.2 °F 2.9 °F 3.2 °F 67% 30.10 in 10.0 mi NNW 5.8 mph - N/A   Clear
5:33 AM 12.2 °F 2.9 °F 3.2 °F 67% 30.10 in 10.0 mi NNW 5.8 mph - N/A   Clear
6:13 AM 10.4 °F 4.0 °F 1.4 °F 67% 30.12 in 10.0 mi NW 3.5 mph - N/A   Clear
6:33 AM 10.4 °F 2.2 °F 1.4 °F 67% 30.13 in 10.0 mi NNW 4.6 mph - N/A   Clear
6:53 AM 8.6 °F - 1.4 °F 73% 30.13 in 10.0 mi Calm Calm - N/A   Clear
7:13 AM 8.6 °F - 1.4 °F 73% 30.13 in 10.0 mi Calm Calm - N/A   Clear
7:33 AM 8.6 °F 0.1 °F 1.4 °F 73% 30.14 in 10.0 mi West 4.6 mph - N/A   Clear
7:53 AM 8.6 °F 0.1 °F 1.4 °F 73% 30.15 in 10.0 mi NW 4.6 mph - N/A   Clear
8:13 AM 10.4 °F -0.4 °F 3.2 °F 73% 30.15 in 10.0 mi NNW 6.9 mph - N/A   Clear
8:34 AM 12.2 °F 2.9 °F 5.0 °F 73% 30.16 in 10.0 mi NW 5.8 mph - N/A   Clear
8:53 AM 14.0 °F 5.1 °F 6.8 °F 73% 30.16 in 10.0 mi NW 5.8 mph - N/A   Clear
9:13 AM 17.6 °F 9.3 °F 6.8 °F 63% 30.15 in 10.0 mi NNW 5.8 mph - N/A   Clear
9:33 AM 19.4 °F 9.5 °F 6.8 °F 58% 30.15 in 10.0 mi NW 8.1 mph - N/A   Clear
9:53 AM 21.2 °F 12.6 °F 6.8 °F 54% 30.15 in 10.0 mi NW 6.9 mph - N/A   Mostly Cloudy
10:13 AM 21.2 °F 10.1 °F 6.8 °F 54% 30.15 in 10.0 mi NW 10.4 mph 17.3 mph N/A   Scattered Clouds
10:33 AM 23.0 °F 13.1 °F 5.0 °F 46% 30.14 in 10.0 mi NNW 9.2 mph 18.4 mph N/A   Clear
10:53 AM 24.8 °F 14.0 °F 6.8 °F 46% 30.14 in 10.0 mi NW 11.5 mph 16.1 mph N/A   Clear
11:13 AM 24.8 °F 17.9 °F 6.8 °F 46% 30.14 in 10.0 mi WNW 5.8 mph - N/A   Clear
11:33 AM 26.6 °F 17.5 °F 6.8 °F 43% 30.13 in 10.0 mi West 9.2 mph 24.2 mph N/A   Clear
11:53 AM 26.6 °F 15.2 °F 6.8 °F 43% 30.13 in 10.0 mi NNW 13.8 mph 24.2 mph N/A   Clear
12:14 PM 26.6 °F 17.5 °F 6.8 °F 43% 30.13 in 10.0 mi NW 9.2 mph 23.0 mph N/A   Clear
12:33 PM 26.6 °F 18.2 °F 5.0 °F 40% 30.14 in 10.0 mi NW 8.1 mph 21.9 mph N/A   Clear
1:13 PM 28.4 °F 19.7 °F 6.8 °F 40% 30.13 in 10.0 mi WNW 9.2 mph 23.0 mph N/A   Scattered Clouds
1:33 PM 28.4 °F 20.4 °F 5.0 °F 37% 30.12 in 10.0 mi NW 8.1 mph 19.6 mph N/A   Clear
1:53 PM 28.4 °F 19.7 °F 3.2 °F 34% 30.12 in 10.0 mi NW 9.2 mph 23.0 mph N/A   Clear
2:13 PM 28.4 °F 18.5 °F 3.2 °F 34% 30.12 in 10.0 mi NNW 11.5 mph 26.5 mph N/A   Clear
2:33 PM 30.2 °F 20.8 °F 1.4 °F 29% 30.12 in 10.0 mi NW 11.5 mph 24.2 mph N/A   Clear
2:53 PM 30.2 °F 19.8 °F 1.4 °F 29% 30.12 in 10.0 mi NW 13.8 mph 23.0 mph N/A   Clear
3:13 PM 30.2 °F 19.8 °F 1.4 °F 29% 30.11 in 10.0 mi NNW 13.8 mph 21.9 mph N/A   Clear
3:34 PM 30.2 °F 20.2 °F 3.2 °F 32% 30.12 in 10.0 mi NW 12.7 mph 23.0 mph N/A   Clear
3:53 PM 32.0 °F 23.0 °F 3.2 °F 30% 30.12 in 10.0 mi NW 11.5 mph 23.0 mph N/A   Clear
4:13 PM 32.0 °F 24.8 °F 1.4 °F 27% 30.11 in 10.0 mi WNW 8.1 mph 23.0 mph N/A   Clear
4:33 PM 32.0 °F 24.2 °F 1.4 °F 27% 30.12 in 10.0 mi NW 9.2 mph 18.4 mph N/A   Clear
4:53 PM 32.0 °F 24.2 °F 1.4 °F 27% 30.11 in 10.0 mi NNW 9.2 mph 21.9 mph N/A   Clear
5:14 PM 32.0 °F 23.0 °F 1.4 °F 27% 30.11 in 10.0 mi NNW 11.5 mph 21.9 mph N/A   Clear
5:33 PM 32.0 °F 23.0 °F 1.4 °F 27% 30.12 in 10.0 mi NNW 11.5 mph 18.4 mph N/A   Clear
5:53 PM 30.2 °F 20.2 °F 1.4 °F 29% 30.12 in 10.0 mi NNW 12.7 mph 18.4 mph N/A   Clear
6:13 PM 30.2 °F 21.3 °F 1.4 °F 29% 30.12 in 10.0 mi NNW 10.4 mph - N/A   Clear
6:34 PM 30.2 °F 21.9 °F 1.4 °F 29% 30.12 in 10.0 mi NNW 9.2 mph 16.1 mph N/A   Clear
6:53 PM 28.4 °F 20.4 °F 1.4 °F 31% 30.12 in 10.0 mi NNW 8.1 mph 16.1 mph N/A   Clear
7:13 PM 28.4 °F 19.7 °F 1.4 °F 31% 30.12 in 10.0 mi NNW 9.2 mph - N/A   Clear
7:35 PM 26.6 °F 20.0 °F 1.4 °F 34% 30.12 in 10.0 mi NNW 5.8 mph - N/A   Clear
7:53 PM 24.8 °F 19.1 °F 1.4 °F 36% 30.12 in 10.0 mi NNW 4.6 mph - N/A   Clear
8:13 PM 24.8 °F 19.1 °F 1.4 °F 36% 30.12 in 10.0 mi NNW 4.6 mph - N/A   Clear
8:33 PM 23.0 °F 18.4 °F 1.4 °F 39% 30.12 in 10.0 mi NNW 3.5 mph - N/A   Clear
8:53 PM 21.2 °F - 1.4 °F 42% 30.13 in 10.0 mi Calm Calm - N/A   Clear
9:13 PM 21.2 °F - -0.4 °F 39% 30.13 in 10.0 mi Calm Calm - N/A   Clear
9:33 PM 19.4 °F - -0.4 °F 42% 30.14 in 10.0 mi Calm Calm - N/A   Clear
9:53 PM 17.6 °F - 1.4 °F 49% 30.14 in 10.0 mi Calm Calm - N/A   Clear
10:13 PM 19.4 °F - 1.4 °F 46% 30.14 in 10.0 mi Calm Calm - N/A   Clear
10:33 PM 17.6 °F - -0.4 °F 45% 30.14 in 10.0 mi Calm Calm - N/A   Clear
10:53 PM 17.6 °F - 1.4 °F 49% 30.14 in 10.0 mi Calm Calm - N/A   Clear
11:13 PM 19.4 °F - 3.2 °F 49% 30.14 in 10.0 mi Calm Calm - N/A   Clear
11:33 PM 19.4 °F - 3.2 °F 49% 30.15 in 10.0 mi Calm Calm - N/A   Clear
11:53 PM 19.4 °F 14.3 °F 3.2 °F 49% 30.15 in 10.0 mi West 3.5 mph - N/A   Clear